Flag for Colombia Weather past 2 weeks in Cartagena, Colombia

Now
82 °F

Passing clouds.


Feels Like: 92 °F
Forecast: 82 / 91 °F
Wind: 2 mph from North

Location: Cartagena / Rafael Nunez

Current Time: Aug 30, 2015 at 5:38:23 AM

Latest Report: Aug 30, 2015 at 5:00 AM


Visibility: N/A

Pressure: 29.74 "Hg

Humidity: 89%

Dew point: 79 °F

Location of CartagenaLocation

Historic Weather in Cartagena — Graph

°F

Cartagena temperature yesterday

Maximum temperature yesterday: 91 °F (at 10:00 AM)
Minimum temperature yesterday: 82 °F (at 12:00 AM)
Average temperature yesterday: 86 °F

Past Weeks' High & Low Weather Summary

 TemperatureHumidityPressure
High93 °F (Aug 19, 11:00 AM)100% (Aug 15, 3:00 PM)29.91 "Hg (Aug 15, 3:00 PM)
Low77 °F (Aug 26, 6:00 AM)59% (Aug 19, 11:00 AM)29.08 "Hg (Aug 17, 10:00 PM)
Average84 °F85%29.78 "Hg
* Reported Aug 15 4:00 AM — Aug 30 4:00 AM, Cartagena, Weather by CustomWeather, © 2015

Note: Actual official high and low records may vary slightly from our data, if they occured in-between our weather recording intervals... More about our weather records

Advertising

Cartagena weather history for previous 24 hours

 ConditionsComfort  
Time TempWeatherWind HumidityBarometerVisibility
4:00 AM
Sun, Aug 30
82 °FPassing clouds.5 mph94%29.73 "HgN/A
3:00 AM82 °FPassing clouds.6 mph94%29.74 "HgN/A
2:00 AM82 °FPassing clouds.6 mph94%29.74 "HgN/A
1:00 AM84 °FPassing clouds.6 mph89%29.76 "HgN/A
12:00 AM84 °FPassing clouds.8 mph94%29.78 "HgN/A
11:00 PM
Sat, Aug 29
84 °FPassing clouds.6 mph94%29.79 "HgN/A
10:00 PM84 °FPassing clouds.3 mph94%29.79 "HgN/A
9:00 PM84 °FPassing clouds.9 mph94%29.76 "HgN/A
8:00 PM84 °FPassing clouds.8 mph94%29.77 "HgN/A
7:00 PM86 °FPassing clouds.8 mph89%29.73 "HgN/A
6:00 PM86 °FPartly sunny.13 mph89%29.71 "HgN/A
5:00 PM88 °FScattered clouds.13 mph79%29.70 "HgN/A
4:00 PM90 °FPassing clouds.10 mph84%29.70 "HgN/A
3:00 PM90 °FScattered showers. Passing clouds.12 mph79%29.71 "HgN/A
2:00 PM91 °FHot.13 mph75%29.74 "HgN/A
1:00 PM90 °FPassing clouds.12 mph79%29.76 "HgN/A
12:00 PM90 °FPassing clouds.10 mph84%29.79 "HgN/A
11:00 AM90 °FScattered clouds.9 mph84%29.81 "HgN/A
10:00 AM91 °FScattered clouds.3 mph71%29.81 "HgN/A
9:00 AM88 °FPassing clouds.3 mph84%29.80 "HgN/A
8:00 AM86 °FScattered clouds.3 mph89%29.79 "HgN/A
7:00 AM82 °FScattered clouds.5 mph100%29.78 "HgN/A
6:00 AM82 °FScattered clouds.5 mph89%29.75 "HgN/A
5:00 AM82 °FPassing clouds.5 mph84%29.75 "HgN/A
Weather by CustomWeather, © 2015

See weather overviewHow to use our weather pages